TimeEST,TemperatureF,Dew PointF,Humidity,Sea Level PressureIn,VisibilityMPH,Wind Direction,Wind SpeedMPH,Gust SpeedMPH,PrecipitationIn,Events,Conditions,WindDirDegrees,DateUTC
12:08 AM,28.4,17.6,64,30.45,10.0,ENE,4.6,-,N/A,,Scattered Clouds,60,2013-12-09 05:08:00
12:21 AM,28.4,17.6,64,30.45,10.0,ENE,4.6,-,N/A,Snow,Light Snow,70,2013-12-09 05:21:00
12:37 AM,28.4,17.6,64,30.44,10.0,Variable,3.5,-,N/A,,Partly Cloudy,0,2013-12-09 05:37:00
12:58 AM,28.2,18.1,66,30.45,10.0,Variable,6.9,-,0.00,,Scattered Clouds,0,2013-12-09 05:58:00
1:07 AM,28.4,17.6,64,30.42,10.0,East,9.2,-,N/A,Snow,Light Snow,100,2013-12-09 06:07:00
1:12 AM,28.4,19.4,69,30.42,10.0,East,6.9,-,N/A,Snow,Light Snow,100,2013-12-09 06:12:00
1:13 AM,28.4,19.4,69,30.42,10.0,Variable,5.8,-,N/A,Snow,Light Snow,0,2013-12-09 06:13:00
1:21 AM,28.4,19.4,69,30.41,10.0,Variable,6.9,-,N/A,Snow,Light Snow,0,2013-12-09 06:21:00
1:24 AM,26.6,19.4,74,30.41,10.0,East,6.9,-,N/A,,Mostly Cloudy,100,2013-12-09 06:24:00
1:47 AM,26.6,19.4,74,30.42,10.0,East,8.1,-,N/A,Snow,Light Snow,90,2013-12-09 06:47:00
1:58 AM,27.3,19.8,73,30.45,10.0,East,5.8,-,0.00,Snow,Light Snow,100,2013-12-09 06:58:00
2:01 AM,26.6,19.4,74,30.42,10.0,Variable,3.5,-,N/A,Snow,Light Snow,0,2013-12-09 07:01:00
2:17 AM,26.6,21.2,80,30.42,6.0,East,4.6,-,N/A,,Haze,90,2013-12-09 07:17:00
2:22 AM,26.6,23.0,86,30.41,5.0,Variable,5.8,-,N/A,Snow,Light Snow,0,2013-12-09 07:22:00
2:29 AM,26.6,23.0,86,30.41,4.0,East,5.8,-,N/A,Snow,Light Snow,90,2013-12-09 07:29:00
2:37 AM,26.6,23.0,86,30.40,2.5,ENE,2.3,-,N/A,Snow,Light Snow,70,2013-12-09 07:37:00
2:40 AM,26.6,24.8,93,30.40,3.0,ENE,2.3,-,N/A,Snow,Light Snow,60,2013-12-09 07:40:00
2:58 AM,25.7,24.4,95,30.42,4.0,Variable,3.5,-,0.00,Snow,Light Snow,0,2013-12-09 07:58:00
3:22 AM,24.8,24.8,100,30.39,5.0,ENE,5.8,-,N/A,Snow,Light Snow,60,2013-12-09 08:22:00
3:31 AM,24.8,24.8,100,30.39,8.0,ENE,6.9,-,N/A,,Overcast,60,2013-12-09 08:31:00
3:39 AM,24.8,24.8,100,30.38,7.0,NE,5.8,-,N/A,,Overcast,40,2013-12-09 08:39:00
3:58 AM,25.3,23.7,94,30.39,9.0,NE,6.9,-,0.00,,Overcast,50,2013-12-09 08:58:00
4:17 AM,24.8,24.8,100,30.35,10.0,NNE,4.6,-,N/A,,Overcast,20,2013-12-09 09:17:00
4:44 AM,24.8,24.8,100,30.33,10.0,NE,5.8,-,N/A,,Overcast,40,2013-12-09 09:44:00
4:48 AM,24.8,24.8,100,30.33,10.0,NNE,4.6,-,N/A,,Light Freezing Drizzle,20,2013-12-09 09:48:00
4:49 AM,24.8,24.8,100,30.33,9.0,NNE,4.6,-,N/A,,Light Freezing Drizzle,30,2013-12-09 09:49:00
4:58 AM,25.5,25.0,98,30.36,9.0,NE,4.6,-,0.00,,Light Freezing Drizzle,40,2013-12-09 09:58:00
5:11 AM,24.8,24.8,100,30.32,10.0,NNE,4.6,-,N/A,,Overcast,30,2013-12-09 10:11:00
5:15 AM,24.8,24.8,100,30.31,10.0,NNE,4.6,-,N/A,,Overcast,30,2013-12-09 10:15:00
5:17 AM,24.8,24.8,100,30.31,10.0,NNE,4.6,-,N/A,,Overcast,30,2013-12-09 10:17:00
5:24 AM,24.8,24.8,100,30.31,9.0,NNE,4.6,-,N/A,,Light Freezing Drizzle,30,2013-12-09 10:24:00
5:38 AM,26.6,24.8,93,30.30,8.0,NNE,4.6,-,N/A,,Light Freezing Drizzle,20,2013-12-09 10:38:00
5:48 AM,26.6,24.8,93,30.30,8.0,North,4.6,-,N/A,,Light Freezing Drizzle,10,2013-12-09 10:48:00
5:58 AM,26.1,25.5,98,30.33,9.0,North,4.6,-,0.00,,Light Freezing Drizzle,10,2013-12-09 10:58:00
6:00 AM,26.6,24.8,93,30.29,9.0,North,4.6,-,N/A,Snow,Light Snow,10,2013-12-09 11:00:00
6:18 AM,26.6,26.6,100,30.28,6.0,NNE,4.6,-,N/A,,Overcast,20,2013-12-09 11:18:00
6:19 AM,26.6,26.6,100,30.28,6.0,North,4.6,-,N/A,,Light Freezing Drizzle,10,2013-12-09 11:19:00
6:22 AM,26.6,26.6,100,30.28,6.0,North,4.6,-,N/A,,Light Freezing Drizzle,10,2013-12-09 11:22:00
6:38 AM,26.6,26.6,100,30.27,10.0,North,4.6,-,N/A,,Light Freezing Drizzle,10,2013-12-09 11:38:00
6:51 AM,26.6,26.6,100,30.24,9.0,NNE,5.8,-,N/A,,Overcast,20,2013-12-09 11:51:00
6:56 AM,26.6,26.6,100,30.25,9.0,North,5.8,-,N/A,,Light Freezing Drizzle,350,2013-12-09 11:56:00
6:58 AM,26.6,26.6,100,30.28,9.0,North,5.8,-,0.00,,Light Freezing Drizzle,350,2013-12-09 11:58:00
7:01 AM,26.6,26.6,100,30.24,9.0,North,5.8,-,N/A,Snow,Light Snow,350,2013-12-09 12:01:00
7:19 AM,26.6,26.6,100,30.24,9.0,North,4.6,-,N/A,Rain,Light Freezing Rain,350,2013-12-09 12:19:00
7:25 AM,28.4,26.6,93,30.23,3.0,NNW,5.8,-,N/A,Rain,Light Freezing Rain,340,2013-12-09 12:25:00
7:33 AM,28.4,28.4,100,30.23,3.0,North,4.6,-,N/A,Rain,Light Freezing Rain,10,2013-12-09 12:33:00
7:57 AM,28.8,28.2,98,30.26,4.0,NNW,6.9,-,0.02,Rain,Light Freezing Rain,340,2013-12-09 12:57:00
8:01 AM,28.4,28.4,100,30.22,4.0,North,4.6,-,N/A,Rain,Light Freezing Rain,350,2013-12-09 13:01:00
8:15 AM,28.4,28.4,100,30.20,2.5,NNE,4.6,-,N/A,Rain,Light Freezing Rain,20,2013-12-09 13:15:00
8:39 AM,30.2,28.4,93,30.19,3.0,North,4.6,-,N/A,,Light Freezing Drizzle,10,2013-12-09 13:39:00
8:58 AM,29.8,29.3,98,30.22,2.5,NNW,4.6,-,0.04,Rain,Light Freezing Rain,340,2013-12-09 13:58:00
9:17 AM,32.0,30.2,93,30.19,2.0,NNW,4.6,-,N/A,Rain,Light Freezing Rain,340,2013-12-09 14:17:00
9:42 AM,32.0,32.0,100,30.19,2.0,NNW,5.8,-,N/A,,Light Freezing Drizzle,330,2013-12-09 14:42:00
9:58 AM,30.6,30.2,99,30.20,2.0,North,4.6,-,0.03,,Light Freezing Drizzle,350,2013-12-09 14:58:00
10:52 AM,32.0,32.0,100,30.14,1.5,North,5.8,-,N/A,Rain,Light Freezing Rain,350,2013-12-09 15:52:00
10:58 AM,31.3,30.9,99,30.15,1.5,NNE,4.6,-,0.01,Rain,Light Freezing Rain,30,2013-12-09 15:58:00
11:26 AM,32.0,32.0,100,30.10,1.2,North,4.6,-,N/A,,Light Freezing Drizzle,360,2013-12-09 16:26:00
11:58 AM,31.8,31.6,99,30.09,1.2,NNE,3.5,-,0.00,,Light Freezing Drizzle,30,2013-12-09 16:58:00
12:52 PM,32.0,32.0,100,30.01,1.0,North,3.5,-,N/A,,Overcast,360,2013-12-09 17:52:00
12:58 PM,32.4,32.2,99,30.04,1.0,North,3.5,-,0.01,,Overcast,350,2013-12-09 17:58:00
1:25 PM,32.0,32.0,100,30.00,1.2,Variable,5.8,-,N/A,,Light Drizzle,0,2013-12-09 18:25:00
1:54 PM,32.0,32.0,100,29.98,1.5,North,4.6,-,N/A,,Light Drizzle,10,2013-12-09 18:54:00
1:58 PM,32.2,32.0,99,30.01,1.5,North,4.6,-,0.00,,Light Drizzle,360,2013-12-09 18:58:00
2:58 PM,32.4,32.2,99,29.98,1.5,North,2.3,-,0.00,,Overcast,360,2013-12-09 19:58:00
3:30 PM,32.0,32.0,100,29.95,3.0,NNW,3.5,-,N/A,,Overcast,340,2013-12-09 20:30:00
3:58 PM,32.4,32.2,99,29.98,3.0,North,2.3,-,N/A,,Overcast,360,2013-12-09 20:58:00
4:58 PM,32.4,32.2,99,29.95,3.0,North,2.3,-,N/A,,Overcast,10,2013-12-09 21:58:00
5:58 PM,32.4,32.2,99,29.95,2.5,Calm,Calm,-,N/A,,Overcast,0,2013-12-09 22:58:00
6:58 PM,32.4,32.2,99,29.94,2.5,Calm,Calm,-,N/A,,Overcast,0,2013-12-09 23:58:00
7:58 PM,32.4,32.2,99,29.96,2.0,Calm,Calm,-,N/A,Fog,Overcast,0,2013-12-10 00:58:00
8:22 PM,32.0,32.0,100,29.92,0.5,SSW,2.3,-,N/A,Fog,Fog,210,2013-12-10 01:22:00
8:48 PM,32.0,32.0,100,29.92,0.5,South,2.3,-,N/A,Fog,Fog,190,2013-12-10 01:48:00
8:58 PM,32.5,32.4,99,29.95,0.5,South,2.3,-,N/A,Fog,Fog,190,2013-12-10 01:58:00
9:58 PM,32.5,32.4,99,29.96,0.5,SW,2.3,-,N/A,Fog,Fog,220,2013-12-10 02:58:00
10:58 PM,31.8,31.5,99,29.95,0.8,South,2.3,-,N/A,,Overcast,190,2013-12-10 03:58:00
10:59 PM,32.0,32.0,100,29.92,1.5,SSW,2.3,-,N/A,,Overcast,200,2013-12-10 03:59:00
11:00 PM,32.0,32.0,100,29.92,1.5,SSW,2.3,-,N/A,,Overcast,210,2013-12-10 04:00:00
11:02 PM,32.0,32.0,100,29.92,1.5,SSW,2.3,-,N/A,,Overcast,210,2013-12-10 04:02:00
11:04 PM,32.0,32.0,100,29.92,1.8,SSW,2.3,-,N/A,,Overcast,210,2013-12-10 04:04:00
11:08 PM,32.0,32.0,100,29.92,2.0,SW,2.3,-,N/A,,Overcast,220,2013-12-10 04:08:00
11:10 PM,32.0,32.0,100,29.92,2.5,SSW,2.3,-,N/A,,Overcast,200,2013-12-10 04:10:00
11:13 PM,32.0,32.0,100,29.92,3.0,SSW,3.5,-,N/A,,Overcast,210,2013-12-10 04:13:00
11:58 PM,31.8,31.6,99,29.95,5.0,SW,4.6,-,N/A,,Overcast,230,2013-12-10 04:58:00